Tracking 19636 objects as of 24-May-2019
HD Live streaming from Space Station
objects crossing your sky now

FLOCK 3R 1

Track FLOCK 3R 1 now!
10-day predictions
FLOCK 3R 1 is classified as:


NORAD ID: 43747
Int'l Code: 2018-096AE
Perigee: 474.9 km
Apogee: 506.4 km
Inclination: 97.5 °
Period: 94.3 minutes
Semi major axis: 6861 km
RCS: Unknown
Launch date: November 29, 2018
Source: United States (US)
Launch site: SRIHARIKOTA (SRI)
aabbcc
Your satellite tracking list
Your tracking list is empty




NASA's NSSDC Master Catalog

Two Line Element Set (TLE):
1 43747U 18096AE  19144.17769099  .00001685  00000-0  65143-4 0  9999
2 43747  97.4614 214.3713 0023003  69.9314 290.4398 15.27422918 26867
Source of the keplerian elements: AFSPC